Location: Tierra Monte Subdivision
(35.2092°N, 106.4864°W)
Time: 04:00:42
(UTC+00:00)

COSMOS 2441 - Pass Details

Date: 30 March 2020
Orbit: 709 x 730 km, 98.0° (Epoch: 02 June)

Event Time Altitude Azimuth Distance (km) Brightness Sun altitude
Rises 11:11:22 0° 7° (N) 3,112 8.0 -21.3°
Reaches altitude 10° 11:13:40 10° 3° (N) 2,188 7.1 -20.9°
Maximum altitude 11:18:21 56° 286° (WNW) 838 4.4 -20.0°
Enters shadow 11:19:45 40° 232° (SW) 1,034 4.7 -19.7°
